Year,Month,Day,Hour,Minute,Value (Times are PST for windspeed in km/hr)
2005,11,02,00,00,6.50
2005,11,02,00,01,7.90
2005,11,02,00,02,9.20
2005,11,02,00,03,12.50
2005,11,02,00,04,8.10
2005,11,02,00,05,7.70
2005,11,02,00,06,7.50
2005,11,02,00,07,7.60
2005,11,02,00,08,7.80
2005,11,02,00,09,7.70
2005,11,02,00,10,9.00
2005,11,02,00,11,8.70
2005,11,02,00,12,8.90
2005,11,02,00,13,10.20
2005,11,02,00,14,11.00
2005,11,02,00,15,9.10
2005,11,02,00,16,10.90
2005,11,02,00,17,13.70
2005,11,02,00,18,9.50
2005,11,02,00,19,6.70
2005,11,02,00,20,5.30
2005,11,02,00,21,6.90
2005,11,02,00,22,7.20
2005,11,02,00,23,7.40
2005,11,02,00,24,6.80
2005,11,02,00,25,7.40
2005,11,02,00,26,7.20
2005,11,02,00,27,5.90
2005,11,02,00,28,6.80
2005,11,02,00,29,6.50
2005,11,02,00,30,6.40
2005,11,02,00,31,6.10
2005,11,02,00,32,7.10
2005,11,02,00,33,6.80
2005,11,02,00,34,6.00
2005,11,02,00,35,6.30
2005,11,02,00,36,8.10
2005,11,02,00,37,6.50
2005,11,02,00,38,7.50
2005,11,02,00,39,5.50
2005,11,02,00,40,5.30
2005,11,02,00,41,4.80
2005,11,02,00,42,7.50
2005,11,02,00,43,8.10
2005,11,02,00,44,7.20
2005,11,02,00,45,5.60
2005,11,02,00,46,4.80
2005,11,02,00,47,4.80
2005,11,02,00,48,7.10
2005,11,02,00,49,6.90
2005,11,02,00,50,6.80
2005,11,02,00,51,7.50
2005,11,02,00,52,3.50
2005,11,02,00,53,6.00
2005,11,02,00,54,5.60
2005,11,02,00,55,4.70
2005,11,02,00,56,3.00
2005,11,02,00,57,5.90
2005,11,02,00,58,8.30
2005,11,02,00,59,9.30
2005,11,02,01,00,6.60
2005,11,02,01,01,5.80
2005,11,02,01,02,5.00
2005,11,02,01,03,7.70
2005,11,02,01,04,5.10
2005,11,02,01,05,5.00
2005,11,02,01,06,4.00
2005,11,02,01,07,5.80
2005,11,02,01,08,6.60
2005,11,02,01,09,7.20
2005,11,02,01,10,6.80
2005,11,02,01,11,8.30
2005,11,02,01,12,5.80
2005,11,02,01,13,7.90
2005,11,02,01,14,3.90
2005,11,02,01,15,4.70
2005,11,02,01,16,8.10
2005,11,02,01,17,8.50
2005,11,02,01,18,5.40
2005,11,02,01,19,5.70
2005,11,02,01,20,5.10
2005,11,02,01,21,4.60
2005,11,02,01,22,6.40
2005,11,02,01,23,8.40
2005,11,02,01,24,6.00
2005,11,02,01,25,5.00
2005,11,02,01,26,9.00
2005,11,02,01,27,8.50
2005,11,02,01,28,6.80
2005,11,02,01,29,6.80
2005,11,02,01,30,8.20
2005,11,02,01,31,5.90
2005,11,02,01,32,6.40
2005,11,02,01,33,10.50
2005,11,02,01,34,5.10
2005,11,02,01,35,4.50
2005,11,02,01,36,6.50
2005,11,02,01,37,8.60
2005,11,02,01,38,7.50
2005,11,02,01,39,7.30
2005,11,02,01,40,7.10
2005,11,02,01,41,5.60
2005,11,02,01,42,5.40
2005,11,02,01,43,9.00
2005,11,02,01,44,8.90
2005,11,02,01,45,7.40
2005,11,02,01,46,6.30
2005,11,02,01,47,5.40
2005,11,02,01,48,4.70
2005,11,02,01,49,7.70
2005,11,02,01,50,6.40
2005,11,02,01,51,5.60
2005,11,02,01,52,4.60
2005,11,02,01,53,6.10
2005,11,02,01,54,4.30
2005,11,02,01,55,4.60
2005,11,02,01,56,5.20
2005,11,02,01,57,5.70
2005,11,02,01,58,5.10
2005,11,02,01,59,9.50
2005,11,02,02,00,4.10
2005,11,02,02,01,3.40
2005,11,02,02,02,3.60
2005,11,02,02,03,4.10
2005,11,02,02,04,2.30
2005,11,02,02,05,3.20
2005,11,02,02,06,4.20
2005,11,02,02,07,5.20
2005,11,02,02,08,4.70
2005,11,02,02,09,4.80
2005,11,02,02,10,4.60
2005,11,02,02,11,4.90
2005,11,02,02,12,5.30
2005,11,02,02,13,3.50
2005,11,02,02,14,3.20
2005,11,02,02,15,3.30
2005,11,02,02,16,5.00
2005,11,02,02,17,4.40
2005,11,02,02,18,4.30
2005,11,02,02,19,4.50
2005,11,02,02,20,5.60
2005,11,02,02,21,5.20
2005,11,02,02,22,4.00
2005,11,02,02,23,2.10
2005,11,02,02,24,2.70
2005,11,02,02,25,3.70
2005,11,02,02,26,3.20
2005,11,02,02,27,3.10
2005,11,02,02,28,2.20
2005,11,02,02,29,3.00
2005,11,02,02,30,2.60
2005,11,02,02,31,4.30
2005,11,02,02,32,4.70
2005,11,02,02,33,3.90
2005,11,02,02,34,4.20
2005,11,02,02,35,3.50
2005,11,02,02,36,4.60
2005,11,02,02,37,4.30
2005,11,02,02,38,3.50
2005,11,02,02,39,5.20
2005,11,02,02,40,5.50
2005,11,02,02,41,6.40
2005,11,02,02,42,6.00
2005,11,02,02,43,5.60
2005,11,02,02,44,4.00
2005,11,02,02,45,3.70
2005,11,02,02,46,4.70
2005,11,02,02,47,7.20
2005,11,02,02,48,5.20
2005,11,02,02,49,7.10
2005,11,02,02,50,6.40
2005,11,02,02,51,6.80
2005,11,02,02,52,4.30
2005,11,02,02,53,6.10
2005,11,02,02,54,5.90
2005,11,02,02,55,4.90
2005,11,02,02,56,4.50
2005,11,02,02,57,4.60
2005,11,02,02,58,3.90
2005,11,02,02,59,4.70
2005,11,02,03,00,5.80
2005,11,02,03,01,4.80
2005,11,02,03,02,4.70
2005,11,02,03,03,3.60
2005,11,02,03,04,4.30
2005,11,02,03,05,2.20
2005,11,02,03,06,3.60
2005,11,02,03,07,3.20
2005,11,02,03,08,3.20
2005,11,02,03,09,1.00
2005,11,02,03,10,0.00
2005,11,02,03,11,0.00
2005,11,02,03,12,0.00
2005,11,02,03,13,0.00
2005,11,02,03,14,0.00
2005,11,02,03,15,0.00
2005,11,02,03,16,0.20
2005,11,02,03,17,0.00
2005,11,02,03,18,0.00
2005,11,02,03,19,0.10
2005,11,02,03,20,0.00
2005,11,02,03,21,2.00
2005,11,02,03,22,0.40
2005,11,02,03,23,0.00
2005,11,02,03,24,0.00
2005,11,02,03,25,0.00
2005,11,02,03,26,0.00
2005,11,02,03,27,0.00
2005,11,02,03,28,0.20
2005,11,02,03,29,0.30
2005,11,02,03,30,0.10
2005,11,02,03,31,0.00
2005,11,02,03,32,0.00
2005,11,02,03,33,0.00
2005,11,02,03,34,0.00
2005,11,02,03,35,0.10
2005,11,02,03,36,1.60
2005,11,02,03,37,1.50
2005,11,02,03,38,1.70
2005,11,02,03,39,1.00
2005,11,02,03,40,0.00
2005,11,02,03,41,0.30
2005,11,02,03,42,1.10
2005,11,02,03,43,2.20
2005,11,02,03,44,1.60
2005,11,02,03,45,0.30
2005,11,02,03,46,0.00
2005,11,02,03,47,0.00
2005,11,02,03,48,0.00
2005,11,02,03,49,0.00
2005,11,02,03,50,0.00
2005,11,02,03,51,0.00
2005,11,02,03,52,0.00
2005,11,02,03,53,0.00
2005,11,02,03,54,0.00
2005,11,02,03,55,0.00
2005,11,02,03,56,0.00
2005,11,02,03,57,0.00
2005,11,02,03,58,0.00
2005,11,02,03,59,0.00
2005,11,02,04,00,0.00
2005,11,02,04,01,0.00
2005,11,02,04,02,0.00
2005,11,02,04,03,0.00
2005,11,02,04,04,0.00
2005,11,02,04,05,0.00
2005,11,02,04,06,0.00
2005,11,02,04,07,0.00
2005,11,02,04,08,0.00
2005,11,02,04,09,0.00
2005,11,02,04,10,0.00
2005,11,02,04,11,0.00
2005,11,02,04,12,0.00
2005,11,02,04,13,0.00
2005,11,02,04,14,0.00
2005,11,02,04,15,0.00
2005,11,02,04,16,0.00
2005,11,02,04,17,0.00
2005,11,02,04,18,0.00
2005,11,02,04,19,0.00
2005,11,02,04,20,0.00
2005,11,02,04,21,0.00
2005,11,02,04,22,0.00
2005,11,02,04,23,0.40
2005,11,02,04,24,1.80
2005,11,02,04,25,2.40
2005,11,02,04,26,1.60
2005,11,02,04,27,2.50
2005,11,02,04,28,3.20
2005,11,02,04,29,2.60
2005,11,02,04,30,4.00
2005,11,02,04,31,4.80
2005,11,02,04,32,4.50
2005,11,02,04,33,4.80
2005,11,02,04,34,4.60
2005,11,02,04,35,5.30
2005,11,02,04,36,4.10
2005,11,02,04,37,4.10
2005,11,02,04,38,4.90
2005,11,02,04,39,4.90
2005,11,02,04,40,5.20
2005,11,02,04,41,5.10
2005,11,02,04,42,3.20
2005,11,02,04,43,4.70
2005,11,02,04,44,3.70
2005,11,02,04,45,4.60
2005,11,02,04,46,5.40
2005,11,02,04,47,5.70
2005,11,02,04,48,3.20
2005,11,02,04,49,4.60
2005,11,02,04,50,4.00
2005,11,02,04,51,3.50
2005,11,02,04,52,4.10
2005,11,02,04,53,3.10
2005,11,02,04,54,3.20
2005,11,02,04,55,2.30
2005,11,02,04,56,3.10
2005,11,02,04,57,4.10
2005,11,02,04,58,3.90
2005,11,02,04,59,4.20
2005,11,02,05,00,4.20
2005,11,02,05,01,4.60
2005,11,02,05,02,6.00
2005,11,02,05,03,6.40
2005,11,02,05,04,4.90
2005,11,02,05,05,6.50
2005,11,02,05,06,5.80
2005,11,02,05,07,6.60
2005,11,02,05,08,4.20
2005,11,02,05,09,4.60
2005,11,02,05,10,5.50
2005,11,02,05,11,7.20
2005,11,02,05,12,5.20
2005,11,02,05,13,5.30
2005,11,02,05,14,6.70
2005,11,02,05,15,6.90
2005,11,02,05,16,6.50
2005,11,02,05,17,7.30
2005,11,02,05,18,7.20
2005,11,02,05,19,7.30
2005,11,02,05,20,9.70
2005,11,02,05,21,6.00
2005,11,02,05,22,6.00
2005,11,02,05,23,6.40
2005,11,02,05,24,5.70
2005,11,02,05,25,5.10
2005,11,02,05,26,5.80
2005,11,02,05,27,5.30
2005,11,02,05,28,5.20
2005,11,02,05,29,5.70
2005,11,02,05,30,5.20
2005,11,02,05,31,4.90
2005,11,02,05,32,4.10
2005,11,02,05,33,2.60
2005,11,02,05,34,2.00
2005,11,02,05,35,1.70
2005,11,02,05,36,4.10
2005,11,02,05,37,3.60
2005,11,02,05,38,5.30
2005,11,02,05,39,5.10
2005,11,02,05,40,4.90
2005,11,02,05,41,6.60
2005,11,02,05,42,6.40
2005,11,02,05,43,5.70
2005,11,02,05,44,6.40
2005,11,02,05,45,5.10
2005,11,02,05,46,7.50
2005,11,02,05,47,5.20
2005,11,02,05,48,5.60
2005,11,02,05,49,5.90
2005,11,02,05,50,6.70
2005,11,02,05,51,4.90
2005,11,02,05,52,6.50
2005,11,02,05,53,5.60
2005,11,02,05,54,4.60
2005,11,02,05,55,5.30
2005,11,02,05,56,3.80
2005,11,02,05,57,4.70
2005,11,02,05,58,6.00
2005,11,02,05,59,5.20
2005,11,02,06,00,5.50
2005,11,02,06,01,5.80
2005,11,02,06,02,6.80
2005,11,02,06,03,5.60
2005,11,02,06,04,6.40
2005,11,02,06,05,6.20
2005,11,02,06,06,6.00
2005,11,02,06,07,5.80
2005,11,02,06,08,6.60
2005,11,02,06,09,6.50
2005,11,02,06,10,7.90
2005,11,02,06,11,7.30
2005,11,02,06,12,5.60
2005,11,02,06,13,6.70
2005,11,02,06,14,4.40
2005,11,02,06,15,6.10
2005,11,02,06,16,5.20
2005,11,02,06,17,3.10
2005,11,02,06,18,3.00
2005,11,02,06,19,3.40
2005,11,02,06,20,3.70
2005,11,02,06,21,3.70
2005,11,02,06,22,3.60
2005,11,02,06,23,3.50
2005,11,02,06,24,3.40
2005,11,02,06,25,4.80
2005,11,02,06,26,4.50
2005,11,02,06,27,4.30
2005,11,02,06,28,3.10
2005,11,02,06,29,2.20
2005,11,02,06,30,1.00
2005,11,02,06,31,0.30
2005,11,02,06,32,0.20
2005,11,02,06,33,1.40
2005,11,02,06,34,3.10
2005,11,02,06,35,2.50
2005,11,02,06,36,1.70
2005,11,02,06,37,1.10
2005,11,02,06,38,1.40
2005,11,02,06,39,0.00
2005,11,02,06,40,2.70
2005,11,02,06,41,4.90
2005,11,02,06,42,3.90
2005,11,02,06,43,4.60
2005,11,02,06,44,7.40
2005,11,02,06,45,6.40
2005,11,02,06,46,6.40
2005,11,02,06,47,6.90
2005,11,02,06,48,6.80
2005,11,02,06,49,5.50
2005,11,02,06,50,7.50
2005,11,02,06,51,5.70
2005,11,02,06,52,6.00
2005,11,02,06,53,6.00
2005,11,02,06,54,6.90
2005,11,02,06,55,6.00
2005,11,02,06,56,8.10
2005,11,02,06,57,7.40
2005,11,02,06,58,8.10
2005,11,02,06,59,8.70
2005,11,02,07,00,7.70
2005,11,02,07,01,7.30
2005,11,02,07,02,8.50
2005,11,02,07,03,7.00
2005,11,02,07,04,8.90
2005,11,02,07,05,6.40
2005,11,02,07,06,8.60
2005,11,02,07,07,7.70
2005,11,02,07,08,8.60
2005,11,02,07,09,5.80
2005,11,02,07,10,6.30
2005,11,02,07,11,9.50
2005,11,02,07,12,6.30
2005,11,02,07,13,5.70
2005,11,02,07,14,7.50
2005,11,02,07,15,5.30
2005,11,02,07,16,6.00
2005,11,02,07,17,6.50
2005,11,02,07,18,4.80
2005,11,02,07,19,6.70
2005,11,02,07,20,5.10
2005,11,02,07,21,5.00
2005,11,02,07,22,4.10
2005,11,02,07,23,3.90
2005,11,02,07,24,3.50
2005,11,02,07,25,2.60
2005,11,02,07,26,1.50
2005,11,02,07,27,1.30
2005,11,02,07,28,2.80
2005,11,02,07,29,3.60
2005,11,02,07,30,3.80
2005,11,02,07,31,4.70
2005,11,02,07,32,5.10
2005,11,02,07,33,4.70
2005,11,02,07,34,4.20
2005,11,02,07,35,4.00
2005,11,02,07,36,4.80
2005,11,02,07,37,4.40
2005,11,02,07,38,4.90
2005,11,02,07,39,5.20
2005,11,02,07,40,5.60
2005,11,02,07,41,6.10
2005,11,02,07,42,8.50
2005,11,02,07,43,5.90
2005,11,02,07,44,5.00
2005,11,02,07,45,5.40
2005,11,02,07,46,7.70
2005,11,02,07,47,7.40
2005,11,02,07,48,6.20
2005,11,02,07,49,5.50
2005,11,02,07,50,10.30
2005,11,02,07,51,7.00
2005,11,02,07,52,6.40
2005,11,02,07,53,4.80
2005,11,02,07,54,4.80
2005,11,02,07,55,4.80
2005,11,02,07,56,4.50
2005,11,02,07,57,3.50
2005,11,02,07,58,1.00
2005,11,02,07,59,0.40
2005,11,02,08,00,0.10
2005,11,02,08,01,1.90
2005,11,02,08,02,3.70
2005,11,02,08,03,3.70
2005,11,02,08,04,1.50
2005,11,02,08,05,0.90
2005,11,02,08,06,0.60
2005,11,02,08,07,0.60
2005,11,02,08,08,0.20
2005,11,02,08,09,0.00
2005,11,02,08,10,0.00
2005,11,02,08,11,0.00
2005,11,02,08,12,0.00
2005,11,02,08,13,0.00
2005,11,02,08,14,0.00
2005,11,02,08,15,0.20
2005,11,02,08,16,4.30
2005,11,02,08,17,4.30
2005,11,02,08,18,2.30
2005,11,02,08,19,0.50
2005,11,02,08,20,1.50
2005,11,02,08,21,1.60
2005,11,02,08,22,2.00
2005,11,02,08,23,2.10
2005,11,02,08,24,3.70
2005,11,02,08,25,4.30
2005,11,02,08,26,4.90
2005,11,02,08,27,4.80
2005,11,02,08,28,2.00
2005,11,02,08,29,3.90
2005,11,02,08,30,4.10
2005,11,02,08,31,3.00
2005,11,02,08,32,1.00
2005,11,02,08,33,1.70
2005,11,02,08,34,1.40
2005,11,02,08,35,3.20
2005,11,02,08,36,3.50
2005,11,02,08,37,3.00
2005,11,02,08,38,3.20
2005,11,02,08,39,2.60
2005,11,02,08,40,1.60
2005,11,02,08,41,1.60
2005,11,02,08,42,1.60
2005,11,02,08,43,1.80
2005,11,02,08,44,2.70
2005,11,02,08,45,4.10
2005,11,02,08,46,4.70
2005,11,02,08,47,5.40
2005,11,02,08,48,1.20
2005,11,02,08,49,3.70
2005,11,02,08,50,4.30
2005,11,02,08,51,4.40
2005,11,02,08,52,4.80
2005,11,02,08,53,4.80
2005,11,02,08,54,3.50
2005,11,02,08,55,3.80
2005,11,02,08,56,5.30
2005,11,02,08,57,5.90
2005,11,02,08,58,6.00
2005,11,02,08,59,3.30
2005,11,02,09,00,5.70
2005,11,02,09,01,7.20
2005,11,02,09,02,7.00
2005,11,02,09,03,5.90
2005,11,02,09,04,4.40
2005,11,02,09,05,3.90
2005,11,02,09,06,4.10
2005,11,02,09,07,4.90
2005,11,02,09,08,2.20
2005,11,02,09,09,2.00
2005,11,02,09,10,3.10
2005,11,02,09,11,3.30
2005,11,02,09,12,5.20
2005,11,02,09,13,5.90
2005,11,02,09,14,4.90
2005,11,02,09,15,5.60
2005,11,02,09,16,4.70
2005,11,02,09,17,7.10
2005,11,02,09,18,8.30
2005,11,02,09,19,7.10
2005,11,02,09,20,6.30
2005,11,02,09,21,6.50
2005,11,02,09,22,5.80
2005,11,02,09,23,7.00
2005,11,02,09,24,6.50
2005,11,02,09,25,4.30
2005,11,02,09,26,4.80
2005,11,02,09,27,5.00
2005,11,02,09,28,7.50
2005,11,02,09,29,5.20
2005,11,02,09,30,5.60
2005,11,02,09,31,3.50
2005,11,02,09,32,3.90
2005,11,02,09,33,4.20
2005,11,02,09,34,4.10
2005,11,02,09,35,5.60
2005,11,02,09,36,8.10
2005,11,02,09,37,8.40
2005,11,02,09,38,4.30
2005,11,02,09,39,1.90
2005,11,02,09,40,5.40
2005,11,02,09,41,4.70
2005,11,02,09,42,5.80
2005,11,02,09,43,4.50
2005,11,02,09,44,3.60
2005,11,02,09,45,5.40
2005,11,02,09,46,6.60
2005,11,02,09,47,6.50
2005,11,02,09,48,7.70
2005,11,02,09,49,5.00
2005,11,02,09,50,7.10
2005,11,02,09,51,6.40
2005,11,02,09,52,7.10
2005,11,02,09,53,4.20
2005,11,02,09,54,5.30
2005,11,02,09,55,7.10
2005,11,02,09,56,7.30
2005,11,02,09,57,5.10
2005,11,02,09,58,4.70
2005,11,02,09,59,5.10
2005,11,02,10,00,3.70
2005,11,02,10,01,5.80
2005,11,02,10,02,4.80
2005,11,02,10,03,3.30
2005,11,02,10,04,4.90
2005,11,02,10,05,5.40
2005,11,02,10,06,4.40
2005,11,02,10,07,3.20
2005,11,02,10,08,3.20
2005,11,02,10,09,3.20
2005,11,02,10,10,4.20
2005,11,02,10,11,8.60
2005,11,02,10,12,5.20
2005,11,02,10,13,4.60
2005,11,02,10,14,2.70
2005,11,02,10,15,4.10
2005,11,02,10,16,3.60
2005,11,02,10,17,3.30
2005,11,02,10,18,0.80
2005,11,02,10,19,1.70
2005,11,02,10,20,1.90
2005,11,02,10,21,3.00
2005,11,02,10,22,0.30
2005,11,02,10,23,1.00
2005,11,02,10,24,3.80
2005,11,02,10,25,1.50
2005,11,02,10,26,8.40
2005,11,02,10,27,7.90
2005,11,02,10,28,6.90
2005,11,02,10,29,6.00
2005,11,02,10,30,2.90
2005,11,02,10,31,8.10
2005,11,02,10,32,5.90
2005,11,02,10,33,3.90
2005,11,02,10,34,6.40
2005,11,02,10,35,11.60
2005,11,02,10,36,9.00
2005,11,02,10,37,8.50
2005,11,02,10,38,3.40
2005,11,02,10,39,4.80
2005,11,02,10,40,2.60
2005,11,02,10,41,3.70
2005,11,02,10,42,3.60
2005,11,02,10,43,1.60
2005,11,02,10,44,1.70
2005,11,02,10,45,0.80
2005,11,02,10,46,1.90
2005,11,02,10,47,2.80
2005,11,02,10,48,2.90
2005,11,02,10,49,3.80
2005,11,02,10,50,5.80
2005,11,02,10,51,5.10
2005,11,02,10,52,3.00
2005,11,02,10,53,3.20
2005,11,02,10,54,3.40
2005,11,02,10,55,0.20
2005,11,02,10,56,3.40
2005,11,02,10,57,3.80
2005,11,02,10,58,3.70
2005,11,02,10,59,2.70
2005,11,02,11,00,3.50
2005,11,02,11,01,4.50
2005,11,02,11,02,4.00
2005,11,02,11,03,3.00
2005,11,02,11,04,4.80
2005,11,02,11,05,4.00
2005,11,02,11,06,4.90
2005,11,02,11,07,8.00
2005,11,02,11,08,7.20
2005,11,02,11,09,7.40
2005,11,02,11,10,11.20
2005,11,02,11,11,8.90
2005,11,02,11,12,6.00
2005,11,02,11,13,6.40
2005,11,02,11,14,6.70
2005,11,02,11,15,8.50
2005,11,02,11,16,5.00
2005,11,02,11,17,6.60
2005,11,02,11,18,5.40
2005,11,02,11,19,6.00
2005,11,02,11,20,4.70
2005,11,02,11,21,2.40
2005,11,02,11,22,2.80
2005,11,02,11,23,8.20
2005,11,02,11,24,5.00
2005,11,02,11,25,7.40
2005,11,02,11,26,11.10
2005,11,02,11,27,8.60
2005,11,02,11,28,6.20
2005,11,02,11,29,8.00
2005,11,02,11,30,7.80
2005,11,02,11,31,9.60
2005,11,02,11,32,6.30
2005,11,02,11,33,6.80
2005,11,02,11,34,6.50
2005,11,02,11,35,10.70
2005,11,02,11,36,5.20
2005,11,02,11,37,7.50
2005,11,02,11,38,7.70
2005,11,02,11,39,8.60
2005,11,02,11,40,8.20
2005,11,02,11,41,7.30
2005,11,02,11,42,10.80
2005,11,02,11,43,8.60
2005,11,02,11,44,11.40
2005,11,02,11,45,11.90
2005,11,02,11,46,10.50
2005,11,02,11,47,8.70
2005,11,02,11,48,6.40
2005,11,02,11,49,5.50
2005,11,02,11,50,7.90
2005,11,02,11,51,5.40
2005,11,02,11,52,6.70
2005,11,02,11,53,8.00
2005,11,02,11,54,11.60
2005,11,02,11,55,15.20
2005,11,02,11,56,12.70
2005,11,02,11,57,12.30
2005,11,02,11,58,10.10
2005,11,02,11,59,9.90
2005,11,02,12,00,11.60
2005,11,02,12,01,7.60
2005,11,02,12,02,11.50
2005,11,02,12,03,6.00
2005,11,02,12,04,9.60
2005,11,02,12,05,13.40
2005,11,02,12,06,10.70
2005,11,02,12,07,10.80
2005,11,02,12,08,12.60
2005,11,02,12,09,18.70
2005,11,02,12,10,11.00
2005,11,02,12,11,7.30
2005,11,02,12,12,13.90
2005,11,02,12,13,13.80
2005,11,02,12,14,11.30
2005,11,02,12,15,12.60
2005,11,02,12,16,9.60
2005,11,02,12,17,11.30
2005,11,02,12,18,12.20
2005,11,02,12,19,10.50
2005,11,02,12,20,17.40
2005,11,02,12,21,11.30
2005,11,02,12,22,12.10
2005,11,02,12,23,12.90
2005,11,02,12,24,15.30
2005,11,02,12,25,12.10
2005,11,02,12,26,13.80
2005,11,02,12,27,10.50
2005,11,02,12,28,10.80
2005,11,02,12,29,15.30
2005,11,02,12,30,14.50
2005,11,02,12,31,13.20
2005,11,02,12,32,12.90
2005,11,02,12,33,12.30
2005,11,02,12,34,6.90
2005,11,02,12,35,8.60
2005,11,02,12,36,10.90
2005,11,02,12,37,11.90
2005,11,02,12,38,13.50
2005,11,02,12,39,10.80
2005,11,02,12,40,6.90
2005,11,02,12,41,5.90
2005,11,02,12,42,8.20
2005,11,02,12,43,9.80
2005,11,02,12,44,7.90
2005,11,02,12,45,7.50
2005,11,02,12,46,7.70
2005,11,02,12,47,11.80
2005,11,02,12,48,10.90
2005,11,02,12,49,8.90
2005,11,02,12,50,11.20
2005,11,02,12,51,8.40
2005,11,02,12,52,15.20
2005,11,02,12,53,10.40
2005,11,02,12,54,13.90
2005,11,02,12,55,13.80
2005,11,02,12,56,7.50
2005,11,02,12,57,11.80
2005,11,02,12,58,9.00
2005,11,02,12,59,6.70
2005,11,02,13,00,8.00
2005,11,02,13,01,9.70
2005,11,02,13,02,9.40
2005,11,02,13,03,9.70
2005,11,02,13,04,9.70
2005,11,02,13,05,9.60
2005,11,02,13,06,12.10
2005,11,02,13,07,10.20
2005,11,02,13,08,12.50
2005,11,02,13,09,12.10
2005,11,02,13,10,8.50
2005,11,02,13,11,8.60
2005,11,02,13,12,8.40
2005,11,02,13,13,15.20
2005,11,02,13,14,9.00
2005,11,02,13,15,6.80
2005,11,02,13,16,8.10
2005,11,02,13,17,9.50
2005,11,02,13,18,14.30
2005,11,02,13,19,11.40
2005,11,02,13,20,14.30
2005,11,02,13,21,10.60
2005,11,02,13,22,8.70
2005,11,02,13,23,6.80
2005,11,02,13,24,10.70
2005,11,02,13,25,7.20
2005,11,02,13,26,9.30
2005,11,02,13,27,7.30
2005,11,02,13,28,8.40
2005,11,02,13,29,9.40
2005,11,02,13,30,7.40
2005,11,02,13,31,8.30
2005,11,02,13,32,7.80
2005,11,02,13,33,7.30
2005,11,02,13,34,9.50
2005,11,02,13,35,13.00
2005,11,02,13,36,9.80
2005,11,02,13,37,7.30
2005,11,02,13,38,11.80
2005,11,02,13,39,7.00
2005,11,02,13,40,11.70
2005,11,02,13,41,9.70
2005,11,02,13,42,14.10
2005,11,02,13,43,9.60
2005,11,02,13,44,9.90
2005,11,02,13,45,6.40
2005,11,02,13,46,13.30
2005,11,02,13,47,10.50
2005,11,02,13,48,8.10
2005,11,02,13,49,12.60
2005,11,02,13,50,7.20
2005,11,02,13,51,5.30
2005,11,02,13,52,8.90
2005,11,02,13,53,9.00
2005,11,02,13,54,12.00
2005,11,02,13,55,11.10
2005,11,02,13,56,11.00
2005,11,02,13,57,14.50
2005,11,02,13,58,11.30
2005,11,02,13,59,11.40
2005,11,02,14,00,8.50
2005,11,02,14,01,10.40
2005,11,02,14,02,13.60
2005,11,02,14,03,13.30
2005,11,02,14,04,10.30
2005,11,02,14,05,11.50
2005,11,02,14,06,8.10
2005,11,02,14,07,6.50
2005,11,02,14,08,9.20
2005,11,02,14,09,9.40
2005,11,02,14,10,8.30
2005,11,02,14,11,10.50
2005,11,02,14,12,9.70
2005,11,02,14,13,7.20
2005,11,02,14,14,7.60
2005,11,02,14,15,6.40
2005,11,02,14,16,7.50
2005,11,02,14,17,8.50
2005,11,02,14,18,14.10
2005,11,02,14,19,11.50
2005,11,02,14,20,12.20
2005,11,02,14,21,14.70
2005,11,02,14,22,10.70
2005,11,02,14,23,12.90
2005,11,02,14,24,13.40
2005,11,02,14,25,15.00
2005,11,02,14,26,14.10
2005,11,02,14,27,11.80
2005,11,02,14,28,12.60
2005,11,02,14,29,10.50
2005,11,02,14,30,10.90
2005,11,02,14,31,7.30
2005,11,02,14,32,9.00
2005,11,02,14,33,9.30
2005,11,02,14,34,8.00
2005,11,02,14,35,7.00
2005,11,02,14,36,9.70
2005,11,02,14,37,8.60
2005,11,02,14,38,9.30
2005,11,02,14,39,6.10
2005,11,02,14,40,6.30
2005,11,02,14,41,7.80
2005,11,02,14,42,11.90
2005,11,02,14,43,8.90
2005,11,02,14,44,8.40
2005,11,02,14,45,7.30
2005,11,02,14,46,7.00
2005,11,02,14,47,9.70
2005,11,02,14,48,11.20
2005,11,02,14,49,10.80
2005,11,02,14,50,6.80
2005,11,02,14,51,7.70
2005,11,02,14,52,11.90
2005,11,02,14,53,12.30
2005,11,02,14,54,10.60
2005,11,02,14,55,8.00
2005,11,02,14,56,8.20
2005,11,02,14,57,3.80
2005,11,02,14,58,5.60
2005,11,02,14,59,6.00
2005,11,02,15,00,9.60
2005,11,02,15,01,7.60
2005,11,02,15,02,9.60
2005,11,02,15,03,8.10
2005,11,02,15,04,11.70
2005,11,02,15,05,13.60
2005,11,02,15,06,12.20
2005,11,02,15,07,10.80
2005,11,02,15,08,9.70
2005,11,02,15,09,7.80
2005,11,02,15,10,8.90
2005,11,02,15,11,7.70
2005,11,02,15,12,7.00
2005,11,02,15,13,6.60
2005,11,02,15,14,5.90
2005,11,02,15,15,6.10
2005,11,02,15,16,4.30
2005,11,02,15,17,5.70
2005,11,02,15,18,6.40
2005,11,02,15,19,6.40
2005,11,02,15,20,4.70
2005,11,02,15,21,4.70
2005,11,02,15,22,4.00
2005,11,02,15,23,4.30
2005,11,02,15,24,3.10
2005,11,02,15,25,3.10
2005,11,02,15,26,4.90
2005,11,02,15,27,6.20
2005,11,02,15,28,9.90
2005,11,02,15,29,8.70
2005,11,02,15,30,6.90
2005,11,02,15,31,7.00
2005,11,02,15,32,9.10
2005,11,02,15,33,6.90
2005,11,02,15,34,6.80
2005,11,02,15,35,7.00
2005,11,02,15,36,6.20
2005,11,02,15,37,8.30
2005,11,02,15,38,7.50
2005,11,02,15,39,4.30
2005,11,02,15,40,5.10
2005,11,02,15,41,6.10
2005,11,02,15,42,4.20
2005,11,02,15,43,4.00
2005,11,02,15,44,4.80
2005,11,02,15,45,3.80
2005,11,02,15,46,2.70
2005,11,02,15,47,6.20
2005,11,02,15,48,4.80
2005,11,02,15,49,6.80
2005,11,02,15,50,6.50
2005,11,02,15,51,4.70
2005,11,02,15,52,4.20
2005,11,02,15,53,2.20
2005,11,02,15,54,2.30
2005,11,02,15,55,5.70
2005,11,02,15,56,5.60
2005,11,02,15,57,2.50
2005,11,02,15,58,0.90
2005,11,02,15,59,1.80
2005,11,02,16,00,3.10
2005,11,02,16,01,3.40
2005,11,02,16,02,2.30
2005,11,02,16,03,3.30
2005,11,02,16,04,4.10
2005,11,02,16,05,5.10
2005,11,02,16,06,6.00
2005,11,02,16,07,5.10
2005,11,02,16,08,5.30
2005,11,02,16,09,5.60
2005,11,02,16,10,4.10
2005,11,02,16,11,3.00
2005,11,02,16,12,2.40
2005,11,02,16,13,2.00
2005,11,02,16,14,3.70
2005,11,02,16,15,1.60
2005,11,02,16,16,2.30
2005,11,02,16,17,3.50
2005,11,02,16,18,2.40
2005,11,02,16,19,2.90
2005,11,02,16,20,1.60
2005,11,02,16,21,0.80
2005,11,02,16,22,0.90
2005,11,02,16,23,0.70
2005,11,02,16,24,0.00
2005,11,02,16,25,0.00
2005,11,02,16,26,0.00
2005,11,02,16,27,0.00
2005,11,02,16,28,0.00
2005,11,02,16,29,0.00
2005,11,02,16,30,0.00
2005,11,02,16,31,0.00
2005,11,02,16,32,0.10
2005,11,02,16,33,0.20
2005,11,02,16,34,0.40
2005,11,02,16,35,0.40
2005,11,02,16,36,0.50
2005,11,02,16,37,0.00
2005,11,02,16,38,0.00
2005,11,02,16,39,0.30
2005,11,02,16,40,0.10
2005,11,02,16,41,0.40
2005,11,02,16,42,0.00
2005,11,02,16,43,1.80
2005,11,02,16,44,3.40
2005,11,02,16,45,4.80
2005,11,02,16,46,4.70
2005,11,02,16,47,5.30
2005,11,02,16,48,6.80
2005,11,02,16,49,4.00
2005,11,02,16,50,4.40
2005,11,02,16,51,6.00
2005,11,02,16,52,11.40
2005,11,02,16,53,9.90
2005,11,02,16,54,6.90
2005,11,02,16,55,6.10
2005,11,02,16,56,7.70
2005,11,02,16,57,12.60
2005,11,02,16,58,9.80
2005,11,02,16,59,5.20
2005,11,02,17,00,4.80
2005,11,02,17,01,5.10
2005,11,02,17,02,6.80
2005,11,02,17,03,8.30
2005,11,02,17,04,8.50
2005,11,02,17,05,8.10
2005,11,02,17,06,6.90
2005,11,02,17,07,5.60
2005,11,02,17,08,7.20
2005,11,02,17,09,5.20
2005,11,02,17,10,4.40
2005,11,02,17,11,5.60
2005,11,02,17,12,5.50
2005,11,02,17,13,3.00
2005,11,02,17,14,2.80
2005,11,02,17,15,4.50
2005,11,02,17,16,3.80
2005,11,02,17,17,4.30
2005,11,02,17,18,3.70
2005,11,02,17,19,5.00
2005,11,02,17,20,4.30
2005,11,02,17,21,2.80
2005,11,02,17,22,3.00
2005,11,02,17,23,4.00
2005,11,02,17,24,4.20
2005,11,02,17,25,6.60
2005,11,02,17,26,6.70
2005,11,02,17,27,4.90
2005,11,02,17,28,2.80
2005,11,02,17,29,1.70
2005,11,02,17,30,5.60
2005,11,02,17,31,6.50
2005,11,02,17,32,5.50
2005,11,02,17,33,2.50
2005,11,02,17,34,3.90
2005,11,02,17,35,4.00
2005,11,02,17,36,3.50
2005,11,02,17,37,0.80
2005,11,02,17,38,2.00
2005,11,02,17,39,4.10
2005,11,02,17,40,6.20
2005,11,02,17,41,5.20
2005,11,02,17,42,4.10
2005,11,02,17,43,5.40
2005,11,02,17,44,3.10
2005,11,02,17,45,3.50
2005,11,02,17,46,1.90
2005,11,02,17,47,1.40
2005,11,02,17,48,0.20
2005,11,02,17,49,1.90
2005,11,02,17,50,1.50
2005,11,02,17,51,0.00
2005,11,02,17,52,0.00
2005,11,02,17,53,3.40
2005,11,02,17,54,4.10
2005,11,02,17,55,3.30
2005,11,02,17,56,4.10
2005,11,02,17,57,3.30
2005,11,02,17,58,3.20
2005,11,02,17,59,2.30
2005,11,02,18,00,1.40
2005,11,02,18,01,1.10